Location: Oracle State Park
(32.6095°N, 110.7330°W)
Time: 03:14:10
(UTC-07:00)

Envisat - Visible Passes

Search period start: 21 March 2019 00:00
Search period end: 31 March 2019 00:00
Orbit: 764 x 766 km, 98.2° (Epoch: 21 March)

Date Brightness Start Highest point End Pass type
(mag) Time Alt. Az. Time Alt. Az. Time Alt. Az.
21 Mar 3.0 18:54:19 10° SSE 18:59:20 68° ENE 19:04:23 10° N visible
21 Mar 6.3 20:38:15 10° W 20:38:43 10° W 20:39:11 10° W visible
22 Mar 5.2 19:57:29 10° SSW 20:01:41 26° W 20:05:54 10° NW visible
23 Mar 3.5 19:19:49 10° S 19:24:50 65° WSW 19:29:53 10° NNW visible
24 Mar 5.9 20:24:51 10° WSW 20:27:24 14° W 20:29:57 10° WNW visible
25 Mar 4.7 19:45:52 10° SSW 19:50:25 34° W 19:55:01 10° NNW visible
26 Mar 3.1 19:08:33 10° S 19:13:37 84° WSW 19:18:43 10° NNW visible
27 Mar 5.7 20:12:40 10° SW 20:16:06 18° W 20:19:32 10° NW visible
28 Mar 4.2 19:34:21 10° S 19:39:10 44° W 19:44:01 10° NNW visible
30 Mar 5.4 20:00:48 10° SSW 20:04:49 24° W 20:08:51 10° NW visible
